Location: Unspecified
(48.5539°N, 71.6350°W)
Time: 04:45:23
(UTC-05:00)

ISS - Pass Details

Date: 29 January 2019
Orbit: 403 x 411 km, 51.6° (Epoch: 16 February)

Event Time Altitude Azimuth Distance (km) Brightness Sun altitude
Rises 16:51:41 0° 239° (WSW) 2,324 2.8 -2.6°
Reaches altitude 10° 16:53:46 10° 237° (WSW) 1,468 0.9 -2.9°
Maximum altitude 16:57:02 68° 154° (SSE) 445 -3.6 -3.4°
Drops below altitude 10° 17:00:20 10° 71° (ENE) 1,479 -1.7 -3.9°
Enters shadow 17:01:17 - 70° (ENE) 1,864 -1.2 -4.0°
Sets 17:02:26 0° 69° (ENE) 2,344 - -4.2°
